IBE14N GVAC-GLRB

Flight info

Callsign IBE14N
Flight time 2h 19m
Altitude 23000
Route IRPOT1A TOBIK A602 MOGSA/N0456F330 UA602 TURED/N0457F350 UG853 AKDAK UM244 GIA UB600 TEKTO NAVPU1A
Aircraft A320/M-SDE3FGHIRWY/LB1

Departure

Time 2026-04-24 07:31
Airport Amílcar Cabral International Airport (GVAC)

Arrival

Time 2026-04-24 09:51
Airport Roberts International Airport (GLRB)
Time Latitude Longitude Altitude Speed Heading
2026-04-24 07:20 16.73170 -22.94490 191 ft 0 kts 90°
2026-04-24 07:23 16.73170 -22.94505 200 ft 3 kts 90°
2026-04-24 07:24 16.73170 -22.94526 191 ft 3 kts 90°
2026-04-24 07:24 16.73170 -22.94547 191 ft 3 kts 90°
2026-04-24 07:24 16.73170 -22.94565 191 ft 3 kts 103°
2026-04-24 07:24 16.73177 -22.94583 198 ft 3 kts 140°
2026-04-24 07:25 16.73194 -22.94592 203 ft 3 kts 169°
2026-04-24 07:25 16.73210 -22.94594 202 ft 1 kts 179°
2026-04-24 07:25 16.73214 -22.94594 202 ft 0 kts 179°
2026-04-24 07:27 16.73210 -22.94594 202 ft 5 kts 178°
2026-04-24 07:27 16.73067 -22.94638 191 ft 31 kts 227°
2026-04-24 07:28 16.72889 -22.94688 192 ft 26 kts 185°
2026-04-24 07:28 16.72710 -22.94689 198 ft 26 kts 176°
2026-04-24 07:28 16.72570 -22.94686 192 ft 8 kts 179°
2026-04-24 07:28 16.72555 -22.94686 192 ft 1 kts 179°
2026-04-24 07:29 16.72551 -22.94686 192 ft 0 kts 179°
2026-04-24 07:29 16.72465 -22.94684 192 ft 24 kts 178°
2026-04-24 07:29 16.72406 -22.94762 192 ft 0 kts 268°
2026-04-24 07:30 16.72406 -22.94788 192 ft 19 kts 270°
2026-04-24 07:30 16.72516 -22.94885 198 ft 24 kts
2026-04-24 07:31 16.72785 -22.94884 196 ft 68 kts 360°
2026-04-24 07:31 16.73458 -22.94898 192 ft 125 kts 359°
2026-04-24 07:31 16.74473 -22.94895 319 ft 158 kts
2026-04-24 07:31 16.75590 -22.94903 851 ft 160 kts
2026-04-24 07:32 16.76702 -22.94912 1483 ft 162 kts
2026-04-24 07:32 16.77844 -22.94921 2080 ft 168 kts
2026-04-24 07:32 16.79062 -22.94929 2526 ft 182 kts
2026-04-24 07:32 16.80372 -22.94938 2899 ft 194 kts
2026-04-24 07:33 16.81756 -22.94949 3298 ft 206 kts
2026-04-24 07:33 16.83251 -22.94958 3661 ft 224 kts
2026-04-24 07:33 16.84815 -22.94725 4209 ft 232 kts 21°
2026-04-24 07:33 16.86175 -22.93790 4812 ft 241 kts 45°
2026-04-24 07:34 16.87012 -22.92237 5289 ft 255 kts 73°
2026-04-24 07:34 16.87155 -22.90360 5798 ft 265 kts 88°
2026-04-24 07:34 16.87161 -22.88412 6332 ft 272 kts 89°
2026-04-24 07:34 16.87164 -22.86378 6763 ft 288 kts 89°
2026-04-24 07:35 16.87167 -22.84238 7234 ft 300 kts 89°
2026-04-24 07:35 16.87173 -22.82045 7811 ft 304 kts 90°
2026-04-24 07:35 16.87183 -22.79828 7991 ft 306 kts 90°
2026-04-24 07:35 16.87158 -22.77606 8031 ft 305 kts 96°
2026-04-24 07:36 16.86677 -22.75458 8047 ft 304 kts 114°
2026-04-24 07:36 16.85640 -22.73558 8454 ft 302 kts 128°
2026-04-24 07:36 16.84424 -22.71786 9169 ft 306 kts 128°
2026-04-24 07:36 16.83193 -22.69969 9919 ft 308 kts 128°
2026-04-24 07:37 16.81948 -22.68122 10439 ft 318 kts 128°
2026-04-24 07:37 16.80644 -22.66187 10763 ft 334 kts 128°
2026-04-24 07:37 16.79275 -22.64155 11058 ft 351 kts 127°
2026-04-24 07:37 16.77842 -22.62026 11380 ft 365 kts 127°
2026-04-24 07:38 16.76369 -22.59842 11937 ft 370 kts 127°
2026-04-24 07:38 16.74881 -22.57636 12589 ft 373 kts 127°
2026-04-24 07:38 16.73380 -22.55412 13237 ft 377 kts 127°
2026-04-24 07:38 16.71866 -22.53168 13867 ft 380 kts 127°
2026-04-24 07:39 16.70340 -22.50903 14414 ft 383 kts 127°
2026-04-24 07:39 16.68798 -22.48621 14934 ft 387 kts 127°
2026-04-24 07:39 16.67236 -22.46314 15448 ft 391 kts 127°
2026-04-24 07:39 16.65661 -22.43988 15955 ft 395 kts 127°
2026-04-24 07:40 16.64066 -22.41637 16447 ft 399 kts 127°
2026-04-24 07:40 16.62455 -22.39265 16934 ft 403 kts 127°
2026-04-24 07:40 16.60831 -22.36871 17420 ft 406 kts 127°
2026-04-24 07:40 16.59189 -22.34451 17903 ft 410 kts 127°
2026-04-24 07:41 16.57536 -22.32016 18372 ft 414 kts 126°
2026-04-24 07:41 16.55815 -22.29594 18775 ft 416 kts 132°
2026-04-24 07:41 16.53763 -22.27466 19189 ft 417 kts 142°
2026-04-24 07:41 16.51427 -22.25660 19606 ft 420 kts 146°
2026-04-24 07:42 16.49043 -22.23877 20010 ft 423 kts 146°
2026-04-24 07:42 16.46644 -22.22079 20410 ft 427 kts 146°
2026-04-24 07:42 16.44224 -22.20265 20811 ft 431 kts 146°
2026-04-24 07:42 16.41782 -22.18433 21206 ft 434 kts 146°
2026-04-24 07:43 16.39352 -22.16612 21590 ft 438 kts 146°
2026-04-24 07:43 16.36839 -22.14729 21975 ft 441 kts 146°
2026-04-24 07:43 16.34373 -22.12878 22356 ft 445 kts 146°
2026-04-24 07:43 16.31860 -22.10987 22722 ft 448 kts 146°
2026-04-24 07:44 16.29321 -22.09079 22985 ft 451 kts 146°
2026-04-24 07:44 16.26779 -22.07169 23046 ft 450 kts 146°
2026-04-24 07:44 16.24238 -22.05262 23037 ft 450 kts 146°
2026-04-24 07:44 16.21698 -22.03363 23040 ft 450 kts 146°
2026-04-24 07:45 16.19155 -22.01465 23048 ft 450 kts 146°
2026-04-24 07:45 16.16611 -21.99564 23048 ft 450 kts 146°
2026-04-24 07:45 16.14072 -21.97663 23049 ft 450 kts 146°
2026-04-24 07:45 16.11527 -21.95759 23046 ft 450 kts 146°
2026-04-24 07:46 16.08986 -21.93858 23045 ft 450 kts 146°
2026-04-24 07:46 16.06442 -21.91957 23043 ft 451 kts 146°
2026-04-24 07:46 16.03895 -21.90058 23043 ft 451 kts 146°
2026-04-24 07:46 16.01348 -21.88160 23054 ft 451 kts 146°
2026-04-24 07:47 15.98797 -21.86260 23051 ft 451 kts 146°
2026-04-24 07:47 15.96249 -21.84360 23046 ft 451 kts 146°
2026-04-24 07:47 15.93703 -21.82463 23052 ft 451 kts 146°
2026-04-24 07:47 15.91153 -21.80562 23046 ft 451 kts 146°
2026-04-24 07:48 15.88604 -21.78660 23038 ft 451 kts 146°
2026-04-24 07:48 15.86193 -21.76574 23038 ft 453 kts 136°
2026-04-24 07:48 15.84142 -21.74148 23026 ft 454 kts 128°
2026-04-24 07:48 15.82210 -21.71553 23028 ft 454 kts 128°
2026-04-24 07:49 15.80277 -21.68958 23030 ft 455 kts 128°
2026-04-24 07:49 15.78331 -21.66343 23117 ft 461 kts 128°
2026-04-24 07:49 15.76349 -21.63685 23246 ft 470 kts 128°
2026-04-24 07:49 15.74334 -21.60986 23452 ft 475 kts 128°
2026-04-24 07:50 15.72302 -21.58268 23710 ft 478 kts 128°
2026-04-24 07:50 15.70253 -21.55529 23960 ft 480 kts 128°
2026-04-24 07:50 15.68196 -21.52783 24215 ft 482 kts 128°
2026-04-24 07:50 15.66138 -21.50028 24459 ft 484 kts 128°
2026-04-24 07:51 15.64071 -21.47262 24708 ft 486 kts 128°
2026-04-24 07:51 15.61995 -21.44491 24947 ft 487 kts 128°
2026-04-24 07:51 15.59909 -21.41714 25189 ft 489 kts 128°
2026-04-24 07:51 15.57814 -21.38926 25423 ft 491 kts 128°
2026-04-24 07:52 15.55714 -21.36126 25660 ft 492 kts 128°
2026-04-24 07:52 15.53609 -21.33319 25889 ft 494 kts 128°
2026-04-24 07:52 15.51523 -21.30540 26118 ft 496 kts 128°
2026-04-24 07:52 15.49403 -21.27717 26345 ft 497 kts 128°
2026-04-24 07:53 15.47275 -21.24886 26568 ft 499 kts 128°
2026-04-24 07:53 15.45141 -21.22042 26786 ft 500 kts 128°
2026-04-24 07:53 15.42996 -21.19190 26988 ft 502 kts 128°
2026-04-24 07:53 15.40849 -21.16337 27195 ft 503 kts 128°
2026-04-24 07:54 15.38694 -21.13472 27396 ft 505 kts 128°
2026-04-24 07:54 15.36534 -21.10602 27591 ft 506 kts 128°
2026-04-24 07:54 15.34366 -21.07722 27773 ft 507 kts 128°
2026-04-24 07:54 15.32193 -21.04835 27956 ft 509 kts 128°
2026-04-24 07:55 15.30012 -21.01933 28138 ft 510 kts 128°
2026-04-24 07:55 15.27833 -20.99035 28312 ft 511 kts 128°
2026-04-24 07:55 15.25642 -20.96125 28486 ft 512 kts 128°
2026-04-24 07:55 15.23451 -20.93221 28728 ft 512 kts 128°
2026-04-24 07:56 15.21999 -20.91298 28904 ft 511 kts 128°
2026-04-24 07:56 15.19811 -20.88402 29148 ft 510 kts 128°
2026-04-24 07:56 15.17621 -20.85506 29396 ft 510 kts 128°
2026-04-24 07:56 15.14728 -20.81675 29716 ft 510 kts 128°
2026-04-24 07:57 15.12547 -20.78781 29962 ft 509 kts 128°
2026-04-24 07:57 15.11076 -20.76831 30119 ft 509 kts 128°
2026-04-24 07:57 15.08892 -20.73939 30327 ft 509 kts 128°
2026-04-24 07:57 15.06712 -20.71059 30560 ft 508 kts 128°
2026-04-24 07:58 15.04564 -20.68224 30796 ft 506 kts 129°
2026-04-24 07:58 15.02394 -20.65360 31051 ft 505 kts 129°
2026-04-24 07:58 15.00232 -20.62509 31303 ft 503 kts 129°
2026-04-24 07:58 14.98074 -20.59659 31563 ft 502 kts 129°
2026-04-24 07:59 14.95930 -20.56821 31820 ft 500 kts 129°
2026-04-24 07:59 14.93787 -20.53987 32082 ft 499 kts 129°
2026-04-24 07:59 14.91651 -20.51171 32344 ft 498 kts 129°
2026-04-24 07:59 14.89517 -20.48361 32609 ft 496 kts 129°
2026-04-24 08:00 14.87388 -20.45556 32869 ft 495 kts 129°
2026-04-24 08:00 14.85266 -20.42762 33138 ft 493 kts 129°
2026-04-24 08:00 14.83150 -20.39976 33407 ft 492 kts 129°
2026-04-24 08:00 14.81039 -20.37199 33673 ft 491 kts 130°
2026-04-24 08:01 14.78933 -20.34426 33938 ft 490 kts 130°
2026-04-24 08:01 14.76835 -20.31660 34178 ft 489 kts 130°
2026-04-24 08:01 14.74743 -20.28900 34406 ft 488 kts 130°
2026-04-24 08:01 14.72647 -20.26146 34622 ft 487 kts 130°
2026-04-24 08:02 14.70553 -20.23405 34830 ft 486 kts 130°
2026-04-24 08:02 14.68459 -20.20662 34967 ft 486 kts 130°
2026-04-24 08:02 14.64307 -20.15164 35000 ft 485 kts 129°
2026-04-24 08:03 14.60172 -20.09642 34997 ft 486 kts 129°
2026-04-24 08:03 14.56058 -20.04166 35006 ft 486 kts 129°
2026-04-24 08:04 14.51896 -19.98649 35009 ft 487 kts 129°
2026-04-24 08:04 14.47731 -19.93139 35006 ft 487 kts 129°
2026-04-24 08:05 14.43561 -19.87623 35014 ft 488 kts 129°
2026-04-24 08:05 14.39396 -19.82100 35013 ft 488 kts 129°
2026-04-24 08:06 14.35226 -19.76589 35014 ft 488 kts 129°
2026-04-24 08:06 14.31054 -19.71072 35013 ft 487 kts 129°
2026-04-24 08:07 14.26881 -19.65561 35013 ft 487 kts 129°
2026-04-24 08:07 14.22709 -19.60054 35011 ft 487 kts 129°
2026-04-24 08:08 14.18524 -19.54556 35008 ft 488 kts 129°
2026-04-24 08:09 14.12264 -19.46298 35005 ft 487 kts 129°
2026-04-24 08:09 14.08091 -19.40794 35004 ft 487 kts 129°
2026-04-24 08:10 14.03938 -19.35335 35006 ft 487 kts 129°
2026-04-24 08:10 13.99760 -19.29848 35005 ft 487 kts 129°
2026-04-24 08:11 13.95586 -19.24354 35002 ft 487 kts 129°
2026-04-24 08:11 13.91406 -19.18865 35001 ft 487 kts 129°
2026-04-24 08:12 13.87233 -19.13382 34998 ft 487 kts 129°
2026-04-24 08:12 13.83056 -19.07896 34999 ft 486 kts 129°
2026-04-24 08:13 13.78875 -19.02425 35000 ft 486 kts 129°
2026-04-24 08:13 13.74701 -18.96955 34994 ft 486 kts 129°
2026-04-24 08:14 13.70523 -18.91483 34993 ft 486 kts 129°
2026-04-24 08:14 13.66340 -18.86027 34984 ft 486 kts 129°
2026-04-24 08:15 13.62161 -18.80563 34984 ft 486 kts 129°
2026-04-24 08:15 13.57992 -18.75104 34978 ft 485 kts 129°
2026-04-24 08:16 13.53813 -18.69650 34978 ft 486 kts 130°
2026-04-24 08:16 13.49626 -18.64205 34985 ft 486 kts 129°
2026-04-24 08:17 13.45445 -18.58756 34988 ft 485 kts 129°
2026-04-24 08:17 13.41269 -18.53310 34986 ft 485 kts 129°
2026-04-24 08:18 13.37094 -18.47869 34983 ft 484 kts 129°
2026-04-24 08:18 13.32951 -18.42465 34982 ft 485 kts 129°
2026-04-24 08:19 13.28770 -18.37048 34989 ft 484 kts 130°
2026-04-24 08:19 13.24578 -18.31648 34985 ft 483 kts 130°
2026-04-24 08:20 13.20393 -18.26259 34977 ft 483 kts 130°
2026-04-24 08:20 13.16205 -18.20875 34967 ft 482 kts 130°
2026-04-24 08:21 13.12022 -18.15492 34967 ft 482 kts 130°
2026-04-24 08:21 13.07847 -18.10107 34970 ft 482 kts 130°
2026-04-24 08:22 13.03664 -18.04725 34974 ft 483 kts 130°
2026-04-24 08:22 12.99370 -17.99458 34978 ft 480 kts 137°
2026-04-24 08:23 12.94415 -17.94881 34975 ft 479 kts 140°
2026-04-24 08:23 12.89450 -17.90322 34980 ft 479 kts 140°
2026-04-24 08:24 12.84488 -17.85766 34975 ft 479 kts 140°
2026-04-24 08:24 12.79531 -17.81218 34976 ft 478 kts 140°
2026-04-24 08:25 12.74572 -17.76674 34976 ft 478 kts 140°
2026-04-24 08:25 12.69615 -17.72139 34965 ft 478 kts 140°
2026-04-24 08:26 12.64684 -17.67636 34971 ft 478 kts 140°
2026-04-24 08:26 12.59720 -17.63103 34973 ft 478 kts 140°
2026-04-24 08:27 12.54763 -17.58569 34978 ft 478 kts 139°
2026-04-24 08:27 12.49809 -17.54039 34973 ft 477 kts 139°
2026-04-24 08:28 12.44853 -17.49515 34973 ft 477 kts 139°
2026-04-24 08:28 12.39901 -17.44998 34966 ft 477 kts 139°
2026-04-24 08:29 12.34951 -17.40481 34965 ft 477 kts 139°
2026-04-24 08:29 12.30002 -17.35971 34960 ft 477 kts 139°
2026-04-24 08:30 12.25052 -17.31461 34955 ft 476 kts 139°
2026-04-24 08:30 12.20104 -17.26951 34951 ft 477 kts 139°
2026-04-24 08:31 12.15152 -17.22441 34949 ft 477 kts 139°
2026-04-24 08:31 12.10194 -17.17933 34951 ft 477 kts 139°
2026-04-24 08:32 12.05235 -17.13426 34954 ft 477 kts 139°
2026-04-24 08:32 12.00305 -17.08950 34950 ft 477 kts 139°
2026-04-24 08:33 11.95347 -17.04449 34947 ft 477 kts 139°
2026-04-24 08:33 11.90391 -16.99943 34947 ft 477 kts 139°
2026-04-24 08:34 11.85428 -16.95446 34941 ft 477 kts 139°
2026-04-24 08:34 11.80459 -16.90947 34937 ft 477 kts 139°
2026-04-24 08:35 11.75495 -16.86445 34939 ft 477 kts 139°
2026-04-24 08:35 11.70529 -16.81941 34938 ft 478 kts 139°
2026-04-24 08:36 11.65560 -16.77439 34940 ft 478 kts 139°
2026-04-24 08:36 11.60584 -16.72939 34945 ft 478 kts 139°
2026-04-24 08:37 11.55610 -16.68444 34947 ft 478 kts 139°
2026-04-24 08:37 11.50671 -16.63980 34945 ft 477 kts 139°
2026-04-24 08:38 11.45711 -16.59493 34943 ft 477 kts 139°
2026-04-24 08:38 11.40746 -16.55004 34944 ft 477 kts 139°
2026-04-24 08:39 11.35773 -16.50523 34949 ft 477 kts 139°
2026-04-24 08:39 11.30806 -16.46045 34948 ft 476 kts 139°
2026-04-24 08:40 11.25850 -16.41573 34951 ft 476 kts 139°
2026-04-24 08:40 11.20890 -16.37101 34952 ft 476 kts 139°
2026-04-24 08:41 11.15941 -16.32635 34951 ft 475 kts 139°
2026-04-24 08:41 11.10988 -16.28176 34952 ft 475 kts 139°
2026-04-24 08:42 11.06066 -16.23756 34945 ft 475 kts 139°
2026-04-24 08:42 11.01119 -16.19300 34943 ft 475 kts 139°
2026-04-24 08:43 10.96172 -16.14842 34945 ft 475 kts 139°
2026-04-24 08:43 10.91216 -16.10389 34947 ft 475 kts 139°
2026-04-24 08:44 10.86265 -16.05939 34950 ft 475 kts 139°
2026-04-24 08:44 10.81315 -16.01489 34952 ft 474 kts 139°
2026-04-24 08:45 10.76369 -15.97054 34945 ft 474 kts 139°
2026-04-24 08:45 10.71423 -15.92618 34948 ft 474 kts 139°
2026-04-24 08:46 10.66480 -15.88182 34947 ft 473 kts 139°
2026-04-24 08:46 10.61538 -15.83757 34946 ft 473 kts 139°
2026-04-24 08:47 10.56599 -15.79335 34944 ft 473 kts 139°
2026-04-24 08:47 10.51666 -15.74910 34951 ft 473 kts 139°
2026-04-24 08:48 10.47562 -15.71239 34949 ft 473 kts 139°
2026-04-24 08:48 10.41821 -15.66118 34949 ft 472 kts 139°
2026-04-24 08:49 10.37003 -15.61594 34947 ft 472 kts 130°
2026-04-24 08:49 10.33954 -15.56976 34938 ft 471 kts 115°
2026-04-24 08:50 10.31548 -15.50801 34938 ft 470 kts 110°
2026-04-24 08:50 10.29219 -15.44644 34943 ft 470 kts 110°
2026-04-24 08:51 10.26871 -15.38453 34944 ft 470 kts 110°
2026-04-24 08:51 10.24533 -15.32261 34945 ft 469 kts 110°
2026-04-24 08:52 10.22203 -15.26075 34938 ft 469 kts 110°
2026-04-24 08:52 10.19869 -15.19893 34941 ft 469 kts 110°
2026-04-24 08:53 10.17534 -15.13709 34936 ft 469 kts 110°
2026-04-24 08:53 10.15189 -15.07529 34943 ft 469 kts 110°
2026-04-24 08:54 10.12843 -15.01354 34943 ft 469 kts 110°
2026-04-24 08:54 10.10502 -14.95174 34940 ft 469 kts 110°
2026-04-24 08:55 10.08166 -14.88995 34942 ft 469 kts 110°
2026-04-24 08:55 10.05828 -14.82824 34939 ft 469 kts 110°
2026-04-24 08:56 10.03487 -14.76653 34935 ft 469 kts 110°
2026-04-24 08:56 10.01154 -14.70521 34934 ft 468 kts 110°
2026-04-24 08:57 9.98790 -14.64316 34930 ft 469 kts 110°
2026-04-24 08:57 9.96443 -14.58149 34926 ft 469 kts 110°
2026-04-24 08:58 9.94112 -14.52016 34926 ft 469 kts 110°
2026-04-24 08:58 9.91764 -14.45845 34929 ft 469 kts 110°
2026-04-24 08:59 9.89417 -14.39669 34932 ft 469 kts 110°
2026-04-24 08:59 9.87052 -14.33497 34933 ft 470 kts 111°
2026-04-24 09:00 9.84555 -14.27374 34938 ft 470 kts 112°
2026-04-24 09:00 9.81934 -14.21292 34937 ft 470 kts 113°
2026-04-24 09:01 9.79318 -14.15211 34935 ft 470 kts 112°
2026-04-24 09:01 9.76734 -14.09116 34939 ft 471 kts 112°
2026-04-24 09:02 9.74170 -14.03009 34940 ft 471 kts 112°
2026-04-24 09:02 9.71599 -13.96904 34943 ft 471 kts 112°
2026-04-24 09:03 9.69032 -13.90849 34944 ft 471 kts 112°
2026-04-24 09:03 9.66450 -13.84748 34941 ft 471 kts 112°
2026-04-24 09:04 9.63862 -13.78650 34950 ft 471 kts 112°
2026-04-24 09:04 9.61278 -13.72552 34962 ft 471 kts 112°
2026-04-24 09:05 9.58699 -13.66452 34962 ft 471 kts 112°
2026-04-24 09:05 9.55392 -13.60754 34960 ft 471 kts 130°
2026-04-24 09:06 9.50778 -13.56049 34961 ft 471 kts 136°
2026-04-24 09:06 9.46075 -13.51430 34962 ft 471 kts 136°
2026-04-24 09:07 9.41383 -13.46809 34959 ft 470 kts 136°
2026-04-24 09:07 9.34359 -13.39888 34955 ft 469 kts 136°
2026-04-24 09:08 9.29707 -13.35316 34949 ft 469 kts 136°
2026-04-24 09:08 9.25027 -13.30724 34949 ft 468 kts 136°
2026-04-24 09:09 9.20353 -13.26136 34955 ft 468 kts 136°
2026-04-24 09:09 9.15686 -13.21557 34953 ft 467 kts 136°
2026-04-24 09:10 9.11044 -13.16965 34951 ft 466 kts 136°
2026-04-24 09:10 9.06434 -13.12345 34953 ft 466 kts 135°
2026-04-24 09:11 9.01828 -13.07735 34957 ft 466 kts 136°
2026-04-24 09:11 8.97217 -13.03148 34954 ft 464 kts 136°
2026-04-24 09:12 8.92613 -12.98576 34959 ft 463 kts 136°
2026-04-24 09:12 8.88026 -12.94012 34956 ft 462 kts 136°
2026-04-24 09:13 8.83453 -12.89462 34958 ft 461 kts 136°
2026-04-24 09:13 8.78837 -12.84969 34960 ft 460 kts 137°
2026-04-24 09:14 8.74223 -12.80567 34958 ft 459 kts 137°
2026-04-24 09:14 8.69588 -12.76138 34957 ft 458 kts 137°
2026-04-24 09:15 8.64975 -12.71702 34963 ft 458 kts 137°
2026-04-24 09:15 8.60366 -12.67264 34962 ft 457 kts 137°
2026-04-24 09:16 8.55754 -12.62839 34963 ft 457 kts 137°
2026-04-24 09:16 8.51144 -12.58422 34963 ft 456 kts 137°
2026-04-24 09:17 8.46543 -12.54014 34967 ft 456 kts 137°
2026-04-24 09:17 8.41946 -12.49614 34966 ft 455 kts 137°
2026-04-24 09:18 8.37360 -12.45216 34966 ft 454 kts 137°
2026-04-24 09:18 8.32790 -12.40812 34962 ft 454 kts 136°
2026-04-24 09:19 8.28295 -12.36333 34966 ft 453 kts 136°
2026-04-24 09:19 8.23833 -12.31841 34964 ft 453 kts 136°
2026-04-24 09:20 8.19386 -12.27399 34963 ft 453 kts 136°
2026-04-24 09:20 8.14863 -12.22919 34962 ft 453 kts 136°
2026-04-24 09:21 8.10399 -12.18507 34961 ft 452 kts 136°
2026-04-24 09:21 8.05916 -12.14055 34963 ft 452 kts 136°
2026-04-24 09:22 8.01438 -12.09608 34963 ft 452 kts 136°
2026-04-24 09:22 7.96963 -12.05163 34964 ft 451 kts 136°
2026-04-24 09:23 7.92488 -12.00726 34961 ft 451 kts 136°
2026-04-24 09:23 7.88010 -11.96290 34962 ft 451 kts 136°
2026-04-24 09:24 7.83528 -11.91850 34956 ft 451 kts 136°
2026-04-24 09:24 7.79095 -11.87361 34957 ft 452 kts 134°
2026-04-24 09:25 7.74825 -11.82706 34957 ft 452 kts 133°
2026-04-24 09:25 7.70598 -11.78009 34958 ft 452 kts 133°
2026-04-24 09:26 7.66344 -11.73342 34955 ft 452 kts 134°
2026-04-24 09:26 7.62065 -11.68714 34957 ft 451 kts 134°
2026-04-24 09:27 7.57779 -11.64084 34959 ft 451 kts 134°
2026-04-24 09:27 7.53506 -11.59460 34958 ft 451 kts 134°
2026-04-24 09:28 7.49231 -11.54834 34955 ft 451 kts 134°
2026-04-24 09:28 7.44970 -11.50204 34956 ft 450 kts 134°
2026-04-24 09:29 7.40734 -11.45612 34956 ft 450 kts 134°
2026-04-24 09:29 7.36468 -11.40987 34956 ft 451 kts 134°
2026-04-24 09:30 7.32199 -11.36363 34953 ft 451 kts 134°
2026-04-24 09:30 7.27925 -11.31749 34951 ft 450 kts 134°
2026-04-24 09:31 7.23642 -11.27127 34707 ft 452 kts 134°
2026-04-24 09:31 7.21500 -11.24805 34479 ft 453 kts 134°
2026-04-24 09:31 7.19356 -11.22478 34251 ft 453 kts 134°
2026-04-24 09:32 7.17205 -11.20147 34028 ft 454 kts 134°
2026-04-24 09:32 7.15055 -11.17821 33736 ft 453 kts 134°
2026-04-24 09:32 7.12913 -11.15507 32758 ft 449 kts 134°
2026-04-24 09:32 7.10800 -11.13229 31952 ft 440 kts 134°
2026-04-24 09:33 7.08750 -11.11017 31440 ft 425 kts 133°
2026-04-24 09:33 7.06741 -11.08849 30860 ft 422 kts 133°
2026-04-24 09:33 7.04743 -11.06688 30282 ft 420 kts 133°
2026-04-24 09:33 7.02754 -11.04539 29668 ft 418 kts 133°
2026-04-24 09:34 7.00810 -11.02438 29106 ft 414 kts 133°
2026-04-24 09:34 6.98856 -11.00332 28554 ft 410 kts 133°
2026-04-24 09:34 6.96923 -10.98248 28011 ft 406 kts 133°
2026-04-24 09:34 6.95008 -10.96179 27471 ft 402 kts 133°
2026-04-24 09:35 6.93113 -10.94129 26936 ft 398 kts 133°
2026-04-24 09:35 6.91240 -10.92104 26411 ft 394 kts 132°
2026-04-24 09:35 6.89380 -10.90098 25898 ft 390 kts 132°
2026-04-24 09:35 6.87540 -10.88117 25392 ft 386 kts 132°
2026-04-24 09:36 6.85713 -10.86148 24907 ft 383 kts 132°
2026-04-24 09:36 6.83902 -10.84194 24425 ft 380 kts 132°
2026-04-24 09:36 6.82106 -10.82256 23961 ft 377 kts 132°
2026-04-24 09:36 6.80325 -10.80333 23506 ft 374 kts 132°
2026-04-24 09:37 6.78556 -10.78422 23009 ft 372 kts 132°
2026-04-24 09:37 6.76876 -10.76461 22569 ft 368 kts 125°
2026-04-24 09:37 6.75526 -10.74290 22129 ft 364 kts 118°
2026-04-24 09:37 6.74272 -10.72091 21683 ft 361 kts 119°
2026-04-24 09:38 6.73023 -10.69912 21229 ft 358 kts 119°
2026-04-24 09:38 6.71782 -10.67756 20778 ft 354 kts 118°
2026-04-24 09:38 6.70552 -10.65621 20326 ft 351 kts 118°
2026-04-24 09:38 6.69332 -10.63502 19867 ft 348 kts 118°
2026-04-24 09:39 6.68127 -10.61404 19406 ft 345 kts 118°
2026-04-24 09:39 6.66933 -10.59323 18937 ft 342 kts 118°
2026-04-24 09:39 6.65752 -10.57264 18484 ft 339 kts 118°
2026-04-24 09:39 6.64578 -10.55218 18001 ft 336 kts 117°
2026-04-24 09:40 6.63809 -10.53877 17681 ft 334 kts 117°
2026-04-24 09:40 6.62653 -10.51865 17230 ft 330 kts 117°
2026-04-24 09:40 6.61509 -10.49875 16795 ft 327 kts 117°
2026-04-24 09:40 6.60374 -10.47902 16357 ft 324 kts 117°
2026-04-24 09:41 6.58888 -10.45316 15787 ft 320 kts 117°
2026-04-24 09:41 6.58137 -10.44011 15495 ft 318 kts 117°
2026-04-24 09:41 6.57033 -10.42093 15081 ft 316 kts 117°
2026-04-24 09:41 6.55916 -10.40205 14664 ft 314 kts 122°
2026-04-24 09:42 6.54385 -10.38635 14239 ft 318 kts 141°
2026-04-24 09:42 6.52384 -10.37671 13815 ft 324 kts 161°
2026-04-24 09:42 6.50129 -10.37456 13330 ft 331 kts 182°
2026-04-24 09:42 6.47899 -10.38055 12853 ft 336 kts 201°
2026-04-24 09:43 6.45805 -10.39021 12386 ft 334 kts 201°
2026-04-24 09:43 6.43708 -10.40001 11893 ft 331 kts 202°
2026-04-24 09:43 6.41630 -10.40974 11433 ft 328 kts 202°
2026-04-24 09:43 6.39572 -10.41938 10952 ft 325 kts 202°
2026-04-24 09:44 6.37531 -10.42888 10474 ft 322 kts 202°
2026-04-24 09:44 6.35521 -10.43822 10002 ft 315 kts 202°
2026-04-24 09:44 6.33568 -10.44731 9778 ft 306 kts 202°
2026-04-24 09:44 6.31619 -10.45636 9900 ft 310 kts 201°
2026-04-24 09:45 6.29658 -10.46543 9683 ft 310 kts 202°
2026-04-24 09:45 6.27700 -10.47452 8975 ft 308 kts 202°
2026-04-24 09:45 6.25774 -10.48348 8382 ft 303 kts 202°
2026-04-24 09:45 6.23880 -10.49230 7828 ft 297 kts 203°
2026-04-24 09:46 6.22012 -10.50097 7287 ft 294 kts 203°
2026-04-24 09:46 6.20171 -10.50950 6745 ft 290 kts 204°
2026-04-24 09:46 6.18345 -10.51796 6207 ft 288 kts 204°
2026-04-24 09:46 6.16537 -10.52633 5736 ft 279 kts 204°
2026-04-24 09:47 6.14770 -10.53274 5382 ft 265 kts 187°
2026-04-24 09:47 6.13005 -10.53177 5212 ft 256 kts 163°
2026-04-24 09:47 6.11403 -10.52390 4868 ft 258 kts 141°
2026-04-24 09:47 6.10187 -10.51077 4237 ft 263 kts 123°
2026-04-24 09:48 6.09454 -10.49426 3817 ft 253 kts 103°
2026-04-24 09:48 6.09286 -10.47728 3648 ft 243 kts 85°
2026-04-24 09:48 6.09616 -10.46058 3499 ft 245 kts 69°
2026-04-24 09:48 6.10408 -10.44540 2999 ft 250 kts 51°
2026-04-24 09:49 6.11668 -10.43307 2406 ft 257 kts 32°
2026-04-24 09:49 6.13178 -10.42389 2209 ft 249 kts 29°
2026-04-24 09:49 6.14649 -10.41498 2035 ft 244 kts 29°
2026-04-24 09:49 6.16098 -10.40622 1813 ft 241 kts 28°
2026-04-24 09:50 6.17486 -10.39784 1527 ft 227 kts 28°
2026-04-24 09:50 6.18847 -10.38974 917 ft 229 kts 28°
2026-04-24 09:50 6.20193 -10.38168 514 ft 220 kts 30°
2026-04-24 09:50 6.21454 -10.37397 242 ft 203 kts 30°
2026-04-24 09:51 6.22579 -10.36723 52 ft 168 kts 29°
2026-04-24 09:51 6.23427 -10.36227 34 ft 103 kts 35°
2026-04-24 09:51 6.23811 -10.35990 35 ft 47 kts 32°
2026-04-24 09:51 6.24015 -10.35837 35 ft 31 kts 83°
2026-04-24 09:52 6.23944 -10.35658 35 ft 24 kts 83°
2026-04-24 09:52 6.24044 -10.35578 34 ft 19 kts 31°
2026-04-24 09:52 6.24110 -10.35491 34 ft 16 kts 94°
2026-04-24 09:52 6.24077 -10.35414 33 ft 0 kts 126°